This is the latest recevied weather packets stored in our database for station/object EA3HRE-13. If no packets are shown the sender has not sent any weather packets the latest 10 day(s).
| Time | Temp. | Humidity | Pressure | Rain* | Wind** | Luminosity | Snow |
|---|---|---|---|---|---|---|---|
| 1787788908 | 25.56° C | 100% | 1009.9 hPa | 0 mm | - | - | - |
| 1787788278 | 25.56° C | 100% | 1010 hPa | 0 mm | - | - | - |
| 1787787678 | 25.56° C | 100% | 1010.2 hPa | 0 mm | - | - | - |
| 1787787048 | 25.56° C | 100% | 1010.2 hPa | 0 mm | - | - | - |
| 1787786448 | 25.56° C | 100% | 1010.5 hPa | 0 mm | - | - | - |
| 1787785848 | 25.56° C | 100% | 1010.4 hPa | 0 mm | - | - | - |
| 1787785248 | 25° C | 100% | 1010.4 hPa | 0 mm | - | - | - |
| 1787784648 | 25° C | 100% | 1010.4 hPa | 0 mm | - | - | - |
| 1787784048 | 25° C | 100% | 1010.4 hPa | 0 mm | - | - | - |
| 1787783417 | 25.56° C | 100% | 1010.3 hPa | 0 mm | - | - | - |
| 1787782817 | 25.56° C | 100% | 1010.3 hPa | 0 mm | - | - | - |
| 1787782217 | 25.56° C | 100% | 1010.2 hPa | 0 mm | - | - | - |
| 1787781617 | 25.56° C | 100% | 1010.2 hPa | 0 mm | - | - | - |
| 1787781017 | 25.56° C | 100% | 1010.2 hPa | 0 mm | - | - | - |
| 1787780417 | 25.56° C | 100% | 1010.4 hPa | 0 mm | - | - | - |
| 1787779817 | 25.56° C | 100% | 1010.2 hPa | 0 mm | - | - | - |
| 1787779217 | 26.11° C | 100% | 1010.2 hPa | 0 mm | - | - | - |
| 1787778617 | 25.56° C | 100% | 1010 hPa | 0 mm | - | - | - |
| 1787777987 | 26.11° C | 100% | 1009.9 hPa | 0 mm | - | - | - |
| 1787777387 | 26.11° C | 100% | 1013.5 hPa | 0 mm | - | - | - |
| 1787776786 | 26.11° C | 100% | 1015.5 hPa | 0 mm | - | - | - |
| 1787776156 | 26.11° C | 100% | 1010 hPa | 0 mm | - | - | - |
| 1787775556 | 26.11° C | 100% | 1010.2 hPa | 0 mm | - | - | - |
| 1787774956 | 26.67° C | 100% | 1010 hPa | 0 mm | - | - | - |
| 1787774326 | 26.67° C | 100% | 1010 hPa | 0 mm | - | - | - |
* Rain latest hour (hover to see other rain measurements)
** Current wind speed in m/s (hover to see current wind gust speed)